This demonstration page uses our WeatherBlox Daily Observations layout. Learn more.

Left ArrowRight Arrow

Hourly Observations for August 14, 2022

Temp ( °F °C ) Dew Point ( °F °C ) Humidity (%) Winds ( mph kmh ) Pressure ( in mb ) Visibility ( mi km ) Precip ( " mm )
12:52 am 00:52 Clear 76 24.4 66 18.9 71 71 S 12 19 29.97 1015 10 16 0.00 0.00
1:52 am 01:52 Clear 74 23.3 66 18.9 76 76 S 9 15 29.97 1015 10 16 0.00 0.00
2:52 am 02:52 Clear 73 22.8 66 18.9 79 79 S 8 13 29.95 1014 10 16 0.00 0.00
3:52 am 03:52 Clear 72 22.2 66 18.9 82 82 S 6 9 29.94 1014 10 16 0.00 0.00
4:52 am 04:52 Clear 73 22.8 66 18.9 79 79 S 6 9 29.94 1014 10 16 0.00 0.00
5:52 am 05:52 Clear 72 22.2 66 18.9 82 82 S 6 9 29.94 1014 10 16 0.00 0.00
6:52 am 06:52 Sunny 71 21.7 66 18.9 84 84 S 7 11 29.95 1014 10 16 0.00 0.00
7:52 am 07:52 Sunny 74 23.3 66 18.9 76 76 SSW 6 9 29.96 1015 10 16 0.00 0.00
8:52 am 08:52 Sunny 80 26.7 62 16.7 54 54 W 6 9 29.97 1015 10 16 0.00 0.00
9:52 am 09:52 Sunny 83 28.3 62 16.7 49 49 W 13 20 29.97 1015 10 16 0.00 0.00
10:52 am 10:52 Sunny 85 29.4 64 17.8 50 50 W 10 17 29.98 1015 10 16 0.00 0.00
11:52 am 11:52 Sunny 88 31.1 65 18.3 47 47 W 8 13 29.97 1015 10 16 0.00 0.00
12:52 pm 12:52 Sunny 90 32.2 67 19.4 47 47 W 8 13 29.96 1015 10 16 0.00 0.00
1:52 pm 13:52 Sunny 92 33.3 66 18.9 43 43 W 10 17 29.94 1014 10 16 0.00 0.00
2:52 pm 14:52 Sunny 94 34.4 67 19.4 41 41 W 9 15 29.93 1013 10 16 0.00 0.00
3:52 pm 15:52 Sunny 95 35 66 18.9 39 39 WSW 5 7 29.91 1013 10 16 0.00 0.00
4:52 pm 16:52 Sunny 95 35 67 19.4 40 40 VRB 5 7 29.91 1013 10 16 0.00 0.00
5:52 pm 17:52 Sunny 93 33.9 68 20 44 44 SW 8 13 29.90 1013 10 16 0.00 0.00
6:52 pm 18:52 Sunny 91 32.8 69 20.6 49 49 SSW 7 11 29.89 1012 10 16 0.00 0.00
7:52 pm 19:52 Sunny 86 30 69 20.6 57 57 SSW 8 13 29.90 1013 10 16 0.00 0.00
8:52 pm 20:52 Clear 82 27.8 68 20 63 63 SW 7 11 29.89 1012 10 16 0.00 0.00
9:52 pm 21:52 Clear 80 26.7 68 20 67 67 SW 6 9 29.91 1013 10 16 0.00 0.00
10:52 pm 22:52 Clear 80 26.7 68 20 67 67 NNE 8 13 29.92 1013 10 16 0.00 0.00
11:52 pm 23:52 Clear 79 26.1 68 20 69 69 NE 7 11 29.91 1013 10 16 0.00 0.00

Powered by AerisWeather